QPF
0.00 0.02 0.02 0.02 0.00 0.00 0.00 0.00 0.00 0.00 0.00 0.00 0.00 0.00 0.00 0.00 0.00 0.00 0.00 0.00 0.01 0.01 0.06 0.03 0.01 0.01 0.03 0.04 0.01 0.00 0.00 0.00 0.00 0.00 0.00 0.00 0.02 0.06 0.01 0.00 0.01 0.03 0.13
0.00 0.01 0.04 0.00 0.00 0.00 0.00 0.00 0.00 0.00 0.00 0.00 0.00 0.00 0.00 0.00 0.00 0.00 0.00 0.00 0.00 0.01 0.02 0.00 0.00 0.00 0.00 0.00 0.00 0.00 0.00 0.00 0.00 0.00 0.01 0.02 0.04 0.05 0.01 0.00 0.00 0.00 0.02
0.00 0.08 0.15 0.05 0.00 0.00 0.00 0.00 0.00 0.00 0.00 0.00 0.00 0.00 0.00 0.00 0.00 0.00 0.00 0.00 0.00 0.00 0.00 0.00 0.00 0.00 0.00 0.00 0.00 0.00 0.00 0.00 0.00 0.00 0.01 0.05 0.04 0.02 0.00 0.01 0.02 0.03 0.03
0.00 0.00 0.03 0.06 0.03 0.00 0.00 0.00 0.00 0.00 0.00 0.00 0.00 0.00 0.00 0.00 0.00 0.00 0.00 0.00 0.00 0.00 0.00 0.01 0.01 0.00 0.00 0.00 0.00 0.00 0.02 0.04 0.03 0.03 0.01 0.00 0.02 0.03 0.04 0.11 0.04 0.01 0.03
0.00 0.00 0.02 0.02 0.01 0.00 0.00 0.00 0.00 0.00 0.00 0.00 0.00 0.00 0.00 0.00 0.00 0.00 0.00 0.00 0.00 0.01 0.02 0.01 0.00 0.00 0.00 0.00 0.01 0.04 0.06 0.05 0.04 0.01 0.00 0.03 0.00 0.01 0.02 0.09 0.07 0.02 0.08
0.00 0.06 0.18 0.07 0.01 0.00 0.00 0.00 0.00 0.00 0.00 0.00 0.00 0.00 0.00 0.00 0.02 0.03 0.00 0.00 0.00 0.01 0.00 0.00 0.00 0.00 0.00 0.02 0.05 0.07 0.05 0.03 0.02 0.00 0.00 0.08 0.00 0.11 0.15 0.05 0.01 0.05 0.10
0.03 0.07 0.23 0.22 0.10 0.02 0.00 0.00 0.00 0.00 0.00 0.00 0.00 0.00 0.00 0.00 0.00 0.02 0.00 0.00 0.01 0.00 0.00 0.00 0.00 0.00 0.00 0.00 0.04 0.09 0.12 0.04 0.05 0.04 0.00 0.04 0.03 0.07 0.06 0.09 0.01 0.01 0.02
0.02 0.02 0.14 0.32 0.30 0.07 0.00 0.00 0.00 0.00 0.00 0.00 0.00 0.00 0.00 0.00 0.02 0.02 0.02 0.00 0.00 0.00 0.00 0.00 0.00 0.00 0.00 0.00 0.06 0.07 0.04 0.01 0.02 0.01 0.05 0.11 0.07 0.16 0.17 0.15 0.03 0.01 0.00
0.00 0.03 0.09 0.11 0.23 0.18 0.01 0.01 0.07 0.02 0.00 0.00 0.00 0.00 0.00 0.01 0.02 0.02 0.00 0.00 0.00 0.00 0.00 0.00 0.00 0.00 0.00 0.00 0.01 0.05 0.02 0.00 0.01 0.00 0.00 0.01 0.03 0.07 0.20 0.22 0.10 0.01 0.04
0.00 0.00 0.03 0.04 0.07 0.16 0.05 0.22 0.23 0.22 0.04 0.00 0.00 0.00 0.00 0.01 0.02 0.03 0.00 0.00 0.00 0.00 0.00 0.00 0.00 0.00 0.00 0.00 0.00 0.00 0.00 0.00 0.00 0.00 0.00 0.00 0.00 0.07 0.27 0.29 0.16 0.05 0.03
0.00 0.00 0.00 0.00 0.01 0.06 0.10 0.15 0.17 0.15 0.02 0.01 0.01 0.00 0.00 0.03 0.03 0.02 0.00 0.00 0.00 0.00 0.00 0.00 0.00 0.00 0.00 0.00 0.00 0.00 0.00 0.00 0.00 0.01 0.05 0.00 0.00 0.06 0.23 0.28 0.23 0.16 0.11
0.00 0.00 0.00 0.00 0.00 0.01 0.12 0.10 0.08 0.12 0.05 0.00 0.00 0.00 0.00 0.00 0.00 0.00 0.00 0.00 0.00 0.00 0.00 0.00 0.00 0.00 0.01 0.06 0.00 0.00 0.00 0.01 0.02 0.03 0.07 0.00 0.00 0.05 0.18 0.18 0.15 0.14 0.09
0.00 0.00 0.00 0.00 0.00 0.02 0.05 0.00 0.01 0.01 0.00 0.00 0.00 0.00 0.00 0.00 0.00 0.00 0.00 0.00 0.00 0.00 0.00 0.00 0.00 0.02 0.05 0.02 0.00 0.00 0.00 0.01 0.04 0.05 0.02 0.02 0.00 0.03 0.12 0.07 0.06 0.08 0.06
0.00 0.00 0.00 0.00 0.00 0.00 0.00 0.00 0.00 0.00 0.00 0.00 0.00 0.00 0.00 0.00 0.00 0.00 0.00 0.00 0.00 0.00 0.00 0.00 0.00 0.02 0.06 0.04 0.02 0.00 0.00 0.00 0.02 0.02 0.02 0.06 0.02 0.00 0.02 0.00 0.00 0.03 0.04
0.00 0.00 0.00 0.00 0.00 0.00 0.00 0.00 0.00 0.01 0.00 0.00 0.00 0.00 0.00 0.00 0.00 0.00 0.00 0.00 0.00 0.00 0.00 0.00 0.00 0.00 0.00 0.00 0.00 0.00 0.00 0.00 0.00 0.02 0.04 0.11 0.02 0.00 0.00 0.00 0.01 0.02 0.00
0.00 0.00 0.00 0.00 0.00 0.00 0.00 0.00 0.00 0.02 0.00 0.00 0.00 0.00 0.00 0.00 0.00 0.00 0.00 0.00 0.00 0.00 0.00 0.00 0.00 0.00 0.00 0.00 0.00 0.00 0.00 0.00 0.00 0.01 0.00 0.04 0.01 0.00 0.00 0.01 0.00 0.00 0.00
0.00 0.00 0.00 0.00 0.00 0.00 0.00 0.00 0.00 0.00 0.00 0.00 0.00 0.00 0.00 0.00 0.00 0.00 0.00 0.00 0.00 0.00 0.00 0.00 0.00 0.00 0.00 0.00 0.00 0.00 0.00 0.00 0.00 0.00 0.00 0.02 0.03 0.00 0.01 0.01 0.01 0.04 0.02
0.00 0.00 0.00 0.00 0.00 0.00 0.00 0.01 0.00 0.00 0.00 0.00 0.00 0.00 0.00 0.00 0.00 0.00 0.00 0.00 0.00 0.00 0.00 0.00 0.00 0.00 0.00 0.00 0.01 0.00 0.00 0.00 0.00 0.02 0.00 0.01 0.01 0.00 0.00 0.02 0.02 0.03 0.01
0.00 0.00 0.00 0.00 0.00 0.00 0.00 0.02 0.03 0.00 0.00 0.00 0.00 0.00 0.00 0.00 0.00 0.00 0.00 0.00 0.00 0.00 0.01 0.00 0.00 0.00 0.00 0.00 0.00 0.00 0.02 0.00 0.00 0.00 0.00 0.00 0.01 0.00 0.00 0.00 0.01 0.00 0.02
0.00 0.00 0.00 0.00 0.00 0.00 0.02 0.00 0.00 0.00 0.00 0.00 0.00 0.00 0.00 0.00 0.00 0.00 0.00 0.01 0.00 0.00 0.00 0.00 0.00 0.00 0.00 0.00 0.00 0.00 0.00 0.00 0.00 0.00 0.00 0.00 0.00 0.00 0.00 0.00 0.00 0.00 0.01
0.00 0.00 0.00 0.00 0.00 0.00 0.00 0.00 0.00 0.01 0.00 0.00 0.00 0.00 0.00 0.00 0.00 0.01 0.01 0.02 0.00 0.00 0.00 0.00 0.00 0.00 0.00 0.00 0.00 0.00 0.00 0.00 0.00 0.00 0.00 0.00 0.00 0.00 0.00 0.00 0.00 0.00 0.00
0.00 0.00 0.00 0.00 0.00 0.00 0.00 0.00 0.00 0.01 0.00 0.00 0.00 0.00 0.00 0.00 0.00 0.00 0.00 0.00 0.00 0.00 0.00 0.00 0.00 0.00 0.00 0.00 0.00 0.00 0.00 0.00 0.00 0.00 0.00 0.00 0.00 0.00 0.00 0.01 0.01 0.01 0.00
0.00 0.00 0.00 0.00 0.00 0.00 0.00 0.00 0.00 0.00 0.00 0.00 0.00 0.00 0.00 0.00 0.00 0.00 0.00 0.00 0.00 0.00 0.00 0.00 0.00 0.00 0.00 0.00 0.03 0.03 0.01 0.01 0.00 0.00 0.00 0.00 0.00 0.00 0.00 0.00 0.05 0.00 0.00
0.00 0.00 0.00 0.00 0.00 0.00 0.00 0.00 0.00 0.00 0.00 0.00 0.00 0.00 0.00 0.00 0.00 0.00 0.00 0.00 0.00 0.00 0.00 0.00 0.00 0.00 0.00 0.00 0.02 0.03 0.02 0.02 0.00 0.01 0.02 0.00 0.00 0.00 0.01 0.00 0.01 0.01 0.04
0.00 0.00 0.00 0.00 0.00 0.00 0.00 0.00 0.00 0.00 0.01 0.00 0.01 0.02 0.00 0.00 0.00 0.00 0.00 0.00 0.00 0.00 0.00 0.00 0.00 0.00 0.01 0.01 0.00 0.00 0.00 0.01 0.00 0.00 0.01 0.01 0.01 0.00 0.00 0.00 0.00 0.00 0.01
0.00 0.00 0.00 0.00 0.00 0.00 0.00 0.00 0.00 0.00 0.00 0.02 0.00 0.00 0.00 0.00 0.00 0.00 0.00 0.00 0.00 0.00 0.00 0.00 0.01 0.01 0.00 0.00 0.02 0.00 0.01 0.00 0.00 0.00 0.00 0.00 0.00 0.00 0.00 0.00 0.00 0.00 0.00
MSLP
1013.98 1013.62 1013.47 1013.57 1013.60 1013.58 1013.79 1013.86 1013.99 1014.06 1014.23 1014.42 1014.54 1014.77 1014.85 1014.93 1015.13 1015.20 1015.33 1015.42 1015.47 1015.61 1015.83 1016.03 1016.04 1016.19 1016.17 1016.23 1016.39 1016.60 1016.70 1016.85 1016.78 1016.59 1016.99 1016.87 1017.08 1017.27 1017.36 1017.53 1017.63 1017.65 1017.82
1013.77 1013.72 1013.60 1013.72 1013.75 1013.77 1013.89 1014.04 1014.15 1014.32 1014.50 1014.67 1014.83 1015.05 1015.10 1015.24 1015.33 1015.40 1015.45 1015.58 1015.74 1015.76 1015.95 1016.21 1016.35 1016.35 1016.35 1016.56 1016.65 1016.64 1016.95 1017.07 1017.14 1016.99 1017.06 1017.26 1017.23 1017.32 1017.49 1017.59 1017.82 1017.92 1017.97
1013.80 1013.87 1014.02 1013.89 1013.91 1013.96 1014.09 1014.20 1014.37 1014.50 1014.68 1014.85 1015.01 1015.12 1015.36 1015.51 1015.59 1015.58 1015.63 1015.76 1016.03 1016.06 1016.25 1016.46 1016.56 1016.53 1016.63 1016.75 1016.87 1016.98 1017.15 1017.19 1016.99 1017.28 1017.15 1017.57 1017.46 1017.61 1017.67 1017.82 1018.01 1018.09 1018.18
1013.70 1013.97 1014.04 1014.19 1014.09 1014.08 1014.22 1014.35 1014.53 1014.59 1014.89 1015.09 1015.16 1015.30 1015.50 1015.58 1015.80 1015.78 1015.79 1015.91 1016.15 1016.32 1016.40 1016.56 1016.59 1016.70 1016.95 1017.12 1017.32 1017.41 1017.55 1017.45 1017.32 1017.03 1017.28 1017.45 1017.60 1017.65 1017.26 1017.46 1017.83 1018.11 1018.07
1013.88 1014.03 1014.17 1014.16 1014.23 1014.24 1014.38 1014.58 1014.79 1014.85 1015.11 1015.34 1015.45 1015.55 1015.61 1015.61 1015.83 1016.03 1016.05 1016.12 1016.29 1016.53 1016.68 1016.79 1016.91 1017.12 1017.35 1017.58 1017.61 1017.80 1017.93 1018.03 1017.60 1017.25 1017.53 1017.76 1018.19 1018.22 1018.00 1017.96 1017.90 1018.10 1018.27
1014.15 1014.07 1014.11 1014.15 1014.25 1014.39 1014.55 1014.70 1014.84 1015.08 1015.32 1015.45 1015.58 1015.67 1015.79 1015.83 1015.78 1016.30 1016.28 1016.35 1016.56 1016.75 1016.89 1016.99 1016.99 1017.28 1017.47 1017.70 1017.81 1017.86 1017.90 1017.93 1017.48 1017.29 1017.30 1017.88 1018.20 1018.11 1018.10 1018.06 1018.12 1018.26 1018.29
1014.47 1014.41 1014.31 1014.14 1014.37 1014.45 1014.60 1014.77 1015.05 1015.31 1015.54 1015.70 1015.71 1015.92 1015.94 1015.98 1016.11 1016.48 1016.55 1016.59 1016.57 1016.89 1017.00 1017.10 1017.38 1017.56 1017.70 1017.61 1017.64 1017.69 1017.71 1017.57 1017.42 1017.37 1017.12 1017.55 1017.89 1018.04 1018.06 1017.92 1018.16 1018.32 1018.45
1014.61 1014.59 1014.77 1014.50 1014.38 1014.50 1014.75 1015.01 1015.39 1015.64 1015.80 1015.86 1015.92 1016.07 1016.05 1016.21 1016.40 1016.57 1016.68 1016.75 1016.88 1016.99 1017.24 1017.40 1017.56 1017.72 1017.58 1017.55 1017.32 1017.39 1017.39 1017.47 1017.23 1017.07 1016.96 1017.30 1017.45 1017.59 1017.99 1017.89 1018.10 1018.32 1018.48
1014.68 1014.94 1015.01 1014.98 1014.56 1014.65 1014.95 1015.29 1015.64 1015.86 1015.95 1016.14 1016.23 1016.25 1016.33 1016.50 1016.60 1016.65 1016.74 1016.84 1017.03 1017.11 1017.43 1017.83 1017.95 1017.85 1017.85 1017.72 1017.26 1017.08 1017.02 1016.85 1017.04 1016.89 1017.04 1017.41 1017.56 1017.92 1017.99 1017.84 1017.97 1018.19 1018.36
1014.98 1014.97 1015.17 1015.19 1015.25 1015.36 1015.40 1015.67 1015.97 1015.89 1016.16 1016.37 1016.42 1016.57 1016.72 1016.75 1016.74 1016.85 1016.92 1017.00 1017.11 1017.30 1017.56 1017.65 1017.79 1017.82 1017.90 1017.61 1017.14 1016.75 1016.68 1017.24 1017.28 1016.98 1016.64 1017.05 1017.43 1017.85 1018.06 1018.12 1018.12 1018.02 1018.15
1015.43 1015.45 1015.42 1015.53 1015.62 1015.81 1015.94 1015.99 1016.04 1016.19 1016.33 1016.40 1016.63 1016.87 1017.03 1017.28 1017.34 1017.14 1017.21 1017.20 1017.30 1017.33 1017.40 1017.51 1017.60 1017.88 1018.23 1017.98 1017.45 1016.56 1016.78 1017.29 1017.31 1017.62 1017.75 1017.71 1017.60 1017.77 1017.73 1018.13 1017.88 1018.00 1018.19
1015.67 1015.71 1015.81 1015.81 1015.93 1016.08 1016.12 1016.19 1016.56 1016.66 1016.74 1016.85 1017.14 1017.32 1017.39 1017.41 1017.37 1017.27 1017.22 1017.20 1017.36 1017.33 1017.30 1017.17 1017.46 1018.14 1017.79 1017.22 1017.50 1016.87 1016.92 1017.20 1017.56 1017.84 1018.01 1017.90 1017.65 1017.65 1017.60 1017.89 1017.85 1017.94 1018.01
1015.72 1015.87 1015.95 1015.98 1016.08 1016.35 1016.49 1016.62 1016.76 1016.95 1017.12 1017.09 1017.29 1017.45 1017.48 1017.48 1017.54 1017.53 1017.41 1017.26 1017.41 1017.43 1017.67 1017.56 1017.53 1018.24 1018.07 1017.43 1017.52 1016.83 1016.64 1016.97 1017.66 1017.59 1018.00 1017.80 1017.73 1017.54 1017.70 1017.61 1017.73 1017.82 1018.07
1015.76 1015.76 1015.91 1015.87 1016.10 1016.45 1016.65 1016.81 1016.92 1017.08 1017.17 1017.34 1017.44 1017.50 1017.62 1017.68 1017.66 1017.58 1017.46 1017.42 1017.62 1017.81 1017.91 1017.60 1017.33 1017.28 1017.22 1017.13 1016.78 1016.54 1016.39 1016.51 1016.89 1017.17 1017.26 1017.34 1017.64 1017.61 1017.66 1017.53 1017.58 1017.65 1018.06
1015.88 1015.92 1015.97 1016.07 1016.41 1016.63 1016.70 1016.91 1017.00 1017.22 1017.37 1017.50 1017.54 1017.38 1017.54 1017.49 1017.76 1017.64 1017.69 1017.61 1017.94 1017.95 1017.97 1017.53 1017.24 1016.92 1016.77 1016.44 1016.18 1016.22 1016.11 1016.26 1016.65 1016.90 1017.06 1017.14 1017.35 1017.60 1017.67 1017.71 1017.58 1017.62 1017.92
1015.82 1015.98 1015.90 1016.14 1016.38 1016.63 1016.77 1016.90 1017.09 1017.24 1017.21 1017.46 1017.36 1017.27 1017.24 1017.23 1017.53 1017.64 1017.92 1017.93 1017.90 1017.77 1017.74 1017.84 1017.22 1017.05 1016.93 1016.59 1016.37 1016.15 1016.12 1016.21 1016.46 1016.70 1016.90 1017.10 1017.27 1017.54 1017.65 1017.70 1017.62 1017.59 1017.85
1015.57 1015.78 1016.02 1016.11 1016.19 1016.57 1016.73 1016.80 1016.84 1016.87 1016.98 1017.24 1017.29 1017.35 1017.20 1017.39 1017.43 1017.51 1017.81 1018.03 1017.90 1017.56 1017.56 1017.52 1017.23 1017.23 1017.25 1016.96 1016.74 1016.54 1016.75 1016.94 1016.80 1016.71 1016.84 1017.07 1017.16 1017.42 1017.52 1017.58 1017.69 1017.68 1017.67
1015.30 1015.66 1015.86 1016.05 1016.34 1016.41 1016.62 1016.74 1016.77 1016.81 1017.19 1017.31 1017.37 1017.24 1017.11 1017.43 1017.42 1017.59 1017.95 1018.09 1017.78 1017.59 1017.58 1017.32 1017.41 1017.61 1017.32 1017.42 1017.27 1016.85 1016.92 1017.01 1016.89 1016.83 1016.66 1016.73 1016.90 1017.04 1017.13 1017.45 1017.59 1017.57 1017.60
1014.91 1015.48 1015.79 1015.88 1016.00 1016.34 1016.50 1016.58 1016.74 1016.70 1016.85 1017.08 1017.12 1017.05 1016.99 1017.37 1017.51 1017.68 1017.98 1018.08 1017.57 1017.51 1017.64 1017.59 1017.59 1017.54 1017.51 1017.30 1017.11 1017.09 1017.13 1017.24 1017.00 1016.69 1016.35 1016.63 1016.49 1016.64 1016.98 1017.31 1017.54 1017.54 1017.56
1014.55 1015.09 1015.51 1015.74 1015.81 1016.01 1016.29 1016.59 1016.82 1016.88 1016.69 1016.81 1016.93 1017.00 1017.00 1017.40 1017.53 1017.81 1018.03 1017.93 1017.37 1017.58 1017.81 1017.73 1017.77 1017.49 1017.57 1017.31 1017.41 1017.53 1017.50 1017.20 1016.91 1016.89 1016.80 1016.45 1016.36 1016.56 1017.16 1017.42 1017.58 1017.59 1017.60
1014.38 1014.86 1015.17 1015.57 1015.73 1016.23 1016.57 1016.82 1017.18 1017.12 1016.73 1016.78 1016.80 1016.75 1016.95 1017.27 1017.45 1017.65 1017.67 1017.57 1017.32 1017.63 1017.95 1017.91 1017.79 1017.77 1017.47 1017.36 1017.59 1017.84 1017.59 1017.09 1016.82 1016.78 1016.53 1016.36 1016.31 1016.60 1017.07 1017.38 1017.66 1017.77 1017.86
1013.85 1014.47 1015.03 1015.19 1015.74 1015.93 1016.07 1016.24 1016.37 1016.68 1016.58 1016.61 1016.63 1016.59 1016.78 1016.96 1017.12 1017.17 1017.26 1017.66 1017.57 1017.71 1017.98 1017.81 1017.83 1017.98 1017.85 1017.68 1017.99 1018.36 1018.21 1017.60 1017.14 1016.88 1016.76 1016.85 1016.66 1016.66 1017.13 1017.31 1017.66 1017.80 1017.74
1013.48 1013.94 1014.50 1014.72 1015.11 1015.64 1015.84 1016.23 1016.50 1016.62 1016.63 1016.78 1016.70 1016.62 1016.46 1016.73 1016.96 1017.02 1017.10 1017.44 1017.50 1017.63 1017.79 1017.72 1017.77 1017.95 1017.92 1017.78 1017.73 1018.46 1018.77 1018.36 1018.01 1017.41 1017.15 1016.96 1017.01 1017.17 1017.23 1017.22 1017.43 1017.71 1017.68
1012.67 1013.17 1013.93 1014.61 1014.82 1015.32 1015.66 1016.04 1016.30 1016.52 1016.94 1016.86 1016.68 1016.56 1016.53 1016.65 1016.87 1016.85 1016.97 1017.13 1017.17 1017.45 1017.50 1017.71 1017.73 1017.82 1017.88 1018.02 1018.04 1017.99 1018.12 1017.97 1018.00 1018.18 1017.60 1017.12 1017.09 1017.28 1017.28 1017.20 1017.46 1017.47 1017.48
1012.35 1012.67 1013.19 1014.09 1014.65 1014.90 1015.15 1015.48 1015.86 1016.31 1016.63 1016.67 1016.62 1016.72 1016.69 1016.57 1016.58 1016.67 1016.91 1016.96 1017.30 1017.38 1017.54 1017.56 1017.76 1017.63 1017.77 1017.94 1018.08 1018.07 1017.92 1017.83 1017.86 1018.18 1018.20 1017.75 1017.66 1017.55 1017.38 1017.42 1017.45 1017.44 1017.46
1012.35 1012.68 1013.04 1013.81 1014.40 1014.53 1014.89 1015.12 1015.46 1015.91 1016.31 1016.62 1016.79 1016.79 1016.76 1016.68 1016.58 1016.53 1016.76 1017.08 1017.22 1017.38 1017.46 1017.35 1017.45 1017.50 1017.67 1017.76 1017.95 1018.08 1017.96 1017.90 1018.03 1018.08 1018.18 1018.12 1018.10 1017.72 1017.61 1017.45 1017.36 1017.23 1017.33
Thickness
5761 5766 5767 5768 5770 5773 5773 5773 5773 5773 5772 5770 5769 5768 5768 5767 5765 5764 5763 5762 5762 5761 5756 5753 5751 5751 5752 5751 5748 5745 5743 5742 5744 5746 5741 5742 5739 5736 5733 5730 5730 5730 5728
5762 5763 5765 5764 5767 5770 5771 5771 5771 5771 5770 5769 5768 5766 5766 5764 5763 5763 5762 5761 5760 5759 5757 5751 5749 5751 5751 5748 5746 5747 5743 5742 5741 5743 5741 5738 5739 5737 5732 5729 5726 5726 5726
5760 5760 5761 5763 5765 5767 5769 5769 5768 5768 5767 5766 5765 5765 5763 5762 5760 5761 5761 5761 5756 5756 5754 5751 5750 5751 5749 5748 5746 5745 5743 5743 5746 5741 5742 5737 5736 5733 5730 5727 5725 5723 5721
5758 5758 5758 5759 5763 5765 5765 5765 5764 5764 5763 5762 5762 5762 5761 5760 5759 5759 5758 5758 5755 5754 5753 5752 5752 5750 5746 5745 5742 5742 5740 5741 5743 5747 5742 5738 5734 5732 5733 5729 5725 5721 5719
5755 5754 5753 5755 5759 5762 5762 5761 5761 5761 5759 5759 5759 5758 5758 5758 5756 5754 5753 5754 5754 5753 5752 5751 5749 5747 5744 5740 5741 5739 5739 5736 5740 5745 5740 5735 5728 5724 5725 5726 5724 5721 5717
5752 5750 5751 5753 5756 5760 5760 5760 5760 5759 5757 5757 5756 5758 5755 5754 5754 5750 5749 5749 5752 5751 5751 5750 5750 5747 5744 5744 5742 5740 5739 5735 5740 5744 5742 5735 5729 5727 5723 5722 5721 5717 5715
5747 5747 5749 5751 5754 5757 5758 5759 5758 5756 5755 5755 5755 5754 5752 5752 5751 5749 5748 5749 5751 5752 5752 5751 5748 5746 5747 5749 5745 5742 5739 5739 5743 5743 5744 5738 5734 5730 5726 5724 5719 5716 5714
5746 5745 5745 5747 5752 5755 5755 5755 5753 5752 5753 5753 5752 5750 5751 5749 5747 5747 5746 5745 5750 5752 5750 5749 5749 5749 5751 5750 5751 5746 5744 5742 5746 5748 5746 5741 5739 5736 5728 5724 5721 5718 5715
5744 5742 5743 5745 5747 5751 5752 5751 5749 5749 5750 5749 5747 5747 5747 5745 5745 5746 5745 5746 5750 5752 5748 5745 5744 5747 5748 5749 5752 5751 5748 5748 5747 5748 5746 5742 5738 5731 5725 5723 5721 5719 5716
5743 5743 5743 5745 5747 5748 5748 5747 5746 5746 5747 5745 5745 5742 5741 5741 5744 5744 5744 5748 5751 5749 5749 5749 5748 5750 5748 5749 5754 5754 5751 5743 5746 5748 5750 5744 5738 5731 5723 5720 5720 5717 5715
5739 5740 5741 5741 5743 5743 5744 5744 5745 5745 5744 5743 5741 5738 5738 5740 5742 5745 5748 5750 5751 5752 5753 5753 5753 5750 5741 5744 5750 5756 5753 5748 5747 5744 5742 5739 5737 5734 5731 5726 5723 5719 5715
5734 5736 5738 5738 5738 5739 5741 5742 5741 5741 5740 5741 5740 5739 5739 5741 5744 5748 5750 5750 5751 5753 5756 5759 5756 5747 5753 5757 5752 5754 5757 5753 5749 5745 5740 5738 5738 5736 5734 5729 5727 5723 5717
5733 5734 5735 5735 5735 5736 5736 5736 5739 5738 5739 5741 5741 5740 5742 5744 5746 5748 5750 5753 5754 5756 5757 5759 5758 5752 5752 5756 5753 5760 5762 5758 5751 5749 5743 5742 5741 5738 5734 5733 5730 5726 5719
5732 5733 5733 5733 5733 5732 5733 5734 5735 5736 5738 5740 5742 5742 5743 5745 5747 5750 5753 5755 5755 5758 5759 5760 5764 5765 5765 5763 5763 5765 5765 5762 5759 5756 5752 5750 5746 5742 5736 5734 5734 5730 5723
5730 5730 5729 5729 5728 5729 5730 5730 5732 5735 5737 5738 5740 5743 5744 5749 5749 5751 5753 5756 5756 5758 5760 5763 5767 5769 5770 5770 5770 5770 5771 5768 5763 5761 5758 5755 5751 5746 5740 5735 5738 5733 5727
5732 5730 5730 5727 5726 5727 5728 5730 5732 5734 5737 5737 5741 5745 5748 5752 5751 5754 5755 5755 5758 5761 5763 5763 5766 5768 5770 5770 5771 5772 5773 5770 5766 5764 5762 5758 5756 5751 5746 5741 5739 5738 5731
5735 5734 5731 5731 5729 5728 5731 5731 5732 5735 5737 5739 5742 5747 5751 5752 5754 5757 5756 5756 5760 5764 5765 5765 5766 5766 5769 5770 5771 5772 5770 5765 5765 5766 5764 5763 5761 5755 5751 5745 5740 5742 5739
5739 5736 5735 5735 5732 5733 5732 5733 5736 5738 5739 5740 5744 5750 5754 5753 5756 5757 5757 5757 5762 5765 5766 5767 5765 5763 5769 5768 5766 5770 5769 5766 5765 5766 5769 5769 5764 5761 5758 5748 5746 5746 5745
5742 5739 5737 5738 5739 5736 5736 5738 5739 5742 5744 5745 5749 5753 5755 5757 5758 5759 5757 5758 5765 5766 5767 5766 5765 5764 5766 5767 5770 5769 5768 5766 5768 5769 5773 5770 5769 5767 5763 5756 5752 5752 5749
5745 5741 5741 5741 5742 5743 5742 5739 5740 5743 5748 5749 5751 5755 5757 5757 5759 5759 5757 5760 5766 5767 5766 5766 5764 5769 5770 5771 5769 5767 5764 5768 5771 5772 5773 5773 5773 5771 5766 5763 5759 5758 5756
5747 5743 5742 5741 5743 5742 5741 5742 5738 5739 5748 5751 5753 5757 5758 5759 5759 5759 5761 5763 5768 5767 5764 5765 5767 5766 5770 5771 5766 5763 5763 5771 5773 5775 5778 5778 5776 5775 5771 5767 5763 5761 5758
5752 5747 5744 5745 5743 5744 5746 5748 5749 5745 5749 5752 5755 5758 5760 5762 5762 5764 5767 5766 5767 5768 5766 5765 5767 5764 5766 5766 5758 5754 5749 5764 5771 5776 5777 5777 5778 5777 5774 5770 5766 5764 5763
5756 5752 5749 5749 5748 5746 5748 5747 5747 5747 5748 5748 5754 5758 5762 5764 5764 5767 5769 5768 5769 5769 5768 5769 5769 5766 5763 5766 5767 5753 5747 5751 5759 5770 5772 5777 5777 5776 5775 5774 5771 5768 5766
5763 5761 5756 5751 5750 5748 5748 5745 5745 5744 5739 5746 5753 5758 5762 5763 5765 5768 5768 5769 5771 5769 5772 5768 5770 5770 5767 5762 5764 5766 5764 5766 5759 5755 5769 5776 5777 5775 5777 5776 5774 5772 5771
5767 5765 5762 5755 5752 5753 5752 5752 5749 5747 5748 5751 5755 5756 5759 5762 5765 5767 5767 5769 5769 5769 5772 5771 5769 5770 5768 5765 5763 5764 5766 5768 5768 5761 5760 5766 5771 5775 5779 5777 5775 5775 5773
5766 5764 5763 5757 5752 5754 5754 5755 5752 5749 5749 5750 5750 5751 5754 5759 5765 5768 5767 5768 5769 5768 5770 5772 5773 5772 5770 5768 5766 5766 5766 5766 5764 5763 5763 5763 5763 5772 5777 5778 5778 5777 5777